LAPAN-A2 (40931 NORAD) Tracking and Keplerian Element Data

This shows tracking and keplerian element data for the satellite.

Feedback or suggestion? Click here.




ElementValue
Catalog40931
NameLAPAN-A2
Epoch Orbit27385
Epoch Day295.04423107
Epoch Year2020
RAAN159.7779
Inclination5.9982
Eccentricity0.0013477
Argument of Perigee257.6363
Mean Anonmoly102.2238
Mean Motion14.76648854
Decay Rate9.59E-06
L11 40931U 15052B 20295.04423107 .00000959 00000-0 44446-4 0 9998
L22 40931 5.9982 159.7779 0013477 257.6363 102.2238 14.76648854273857

Live tracking and technical data element details for LAPAN-A2 (NORAD 40931). LAPAN-A2 can be tracked NOW for your location showing map with azimuth and elevation plus other details from your city location.

Track the satellite on the map from your city or location and see movement details for azimuth, elevation, latitude, longitude, range, height, and movement on the map or in text.







IsCatalogInMostPopularTable: catalog: 40931, numindb: 498
Update: records affected: 1



GetName: 40931 LAPAN-A2

Hit Count: updated at: Thu, 22 Oct 2020 03:53:41 GMT